Weather History for Clinton, MO

Change the Weather History Date:

Tuesday, May 8, 2012

  Actual Average (KSZL) Record (KSZL)
Temperature  
Mean Temperature 62 °F -  
Max Temperature 73 °F 72 °F 87 °F (2000)
Min Temperature 51 °F 52 °F 48 °F (2001)
Degree Days  
Heating Degree Days 3    
Growing Degree Days 12 (Base 50)    
Moisture  
Dew Point 49 °F    
Average Humidity 67    
Maximum Humidity 100    
Minimum Humidity 38    
Precipitation  
Precipitation 0.00 in - - ()
Sea Level Pressure  
Sea Level Pressure 30.03 in    
Wind  
Wind Speed 4 mph (NW)    
Max Wind Speed 13 mph    
Max Gust Speed 16 mph    
Visibility 10 miles    
Events      
Averages and records for this station are not official NWS values.
T = Trace of Precipitation, MM = Missing Value Source: NWS Daily Summary

Daily Weather History Graph

Daily Weather History Graph

Search for Another Location

Airport:

Trip Planner

Search our weather history database for the weather conditions in past years. The results will help you decide how hot, cold, wet, or windy it might be!

Date:

Astronomy

May. 08, 2012 Rise Set
Actual Time 6:09 AM CDT 8:13 PM CDT
Civil Twilight 5:40 AM CDT 8:42 PM CDT
Nautical Twilight 5:04 AM CDT 9:18 PM CDT
Astronomical Twilight 4:26 AM CDT 9:56 PM CDT
Moon 11:23 PM CDT (5/8) 8:19 AM CDT (5/8)
Length of Visible Light 15h 02m
Length of Day
14h 03m
Waning Gibbous, 90% of the Moon is Illuminated
May 8
Waning Gibbous
May 12
Last Quarter
May 20
New
May 28
First Quarter
Jun 4
Full

Hourly Weather History & Observations

Time (CDT) Temp. Dew Point Humidity Pressure Visibility Wind Dir Wind Speed Gust Speed Precip Events Conditions
12:15 AM 57.2 °F 51.8 °F 82% 30.02 in 10.0 mi NNW 5.8 mph - N/A   Clear
12:35 AM 55.4 °F 51.8 °F 88% 30.01 in 10.0 mi North 5.8 mph - N/A   Clear
12:55 AM 53.6 °F 51.8 °F 94% 30.00 in 10.0 mi North 5.8 mph - N/A   Clear
1:15 AM 53.6 °F 51.8 °F 94% 30.02 in 10.0 mi Calm Calm - N/A   Clear
1:35 AM 53.6 °F 50.0 °F 88% 30.02 in 10.0 mi Calm Calm - N/A   Clear
1:55 AM 53.6 °F 50.0 °F 88% 30.02 in 10.0 mi Calm Calm - N/A   Clear
2:15 AM 51.8 °F 50.0 °F 94% 30.03 in 10.0 mi Calm Calm - N/A   Mostly Cloudy
2:35 AM 53.6 °F 51.8 °F 94% 30.02 in 10.0 mi Calm Calm - N/A   Mostly Cloudy
2:55 AM 53.6 °F 51.8 °F 94% 30.02 in 10.0 mi Calm Calm - N/A   Partly Cloudy
3:15 AM 51.8 °F 51.8 °F 100% 30.03 in 10.0 mi Calm Calm - N/A   Partly Cloudy
3:35 AM 53.6 °F 51.8 °F 94% 30.04 in 10.0 mi Calm Calm - N/A   Mostly Cloudy
3:55 AM 53.6 °F 51.8 °F 94% 30.04 in 10.0 mi Calm Calm - N/A   Overcast
4:15 AM 55.4 °F 53.6 °F 94% 30.05 in 10.0 mi WNW 5.8 mph - N/A   Overcast
4:35 AM 55.4 °F 51.8 °F 88% 30.05 in 10.0 mi NW 6.9 mph - N/A   Overcast
4:55 AM 55.4 °F 51.8 °F 88% 30.06 in 10.0 mi NW 4.6 mph - N/A   Overcast
5:15 AM 55.4 °F 51.8 °F 88% 30.07 in 10.0 mi NW 6.9 mph - N/A   Overcast
5:35 AM 53.6 °F 51.8 °F 94% 30.07 in 10.0 mi NW 6.9 mph - N/A   Scattered Clouds
5:55 AM 53.6 °F 50.0 °F 88% 30.07 in 10.0 mi NW 5.8 mph - N/A   Clear
6:15 AM 53.6 °F 50.0 °F 88% 30.07 in 10.0 mi Calm Calm - N/A   Clear
6:35 AM 51.8 °F 48.2 °F 88% 30.06 in 10.0 mi NNW 5.8 mph - N/A   Clear
6:55 AM 53.6 °F 50.0 °F 88% 30.05 in 9.0 mi NW 4.6 mph - N/A   Clear
7:15 AM 53.6 °F 51.8 °F 94% 30.05 in 9.0 mi NNW 5.8 mph - N/A   Clear
7:35 AM 55.4 °F 51.8 °F 88% 30.06 in 10.0 mi NW 3.5 mph - N/A   Clear
7:55 AM 57.2 °F 51.8 °F 82% 30.06 in 8.0 mi NW 3.5 mph - N/A   Clear
8:15 AM 59.0 °F 51.8 °F 77% 30.06 in 10.0 mi NNW 3.5 mph - N/A   Clear
8:35 AM 60.8 °F 51.8 °F 72% 30.07 in 9.0 mi NW 3.5 mph - N/A   Clear
8:55 AM 62.6 °F 51.8 °F 68% 30.08 in 10.0 mi Calm Calm - N/A   Clear
9:15 AM 64.4 °F 53.6 °F 68% 30.08 in 9.0 mi NNW 5.8 mph - N/A   Clear
9:35 AM 66.2 °F 50.0 °F 56% 30.07 in 10.0 mi North 6.9 mph - N/A   Clear
9:55 AM 66.2 °F 48.2 °F 52% 30.06 in 9.0 mi North 6.9 mph - N/A   Clear
10:15 AM 68.0 °F 48.2 °F 49% 30.05 in 10.0 mi North 8.1 mph - N/A   Clear
10:55 AM 69.8 °F 44.6 °F 40% 30.06 in 10.0 mi NNW 9.2 mph - N/A   Clear
11:15 AM 69.8 °F 44.6 °F 40% 30.07 in 10.0 mi NNW 9.2 mph - N/A   Clear
11:35 AM 69.8 °F 44.6 °F 40% 30.08 in 9.0 mi NNW 6.9 mph - N/A   Clear
11:55 AM 71.6 °F 44.6 °F 38% 30.08 in 10.0 mi NW 4.6 mph - N/A   Partly Cloudy
12:15 PM 71.6 °F 46.4 °F 41% 30.08 in 10.0 mi North 9.2 mph - N/A   Clear
12:35 PM 71.6 °F 46.4 °F 41% 30.07 in 10.0 mi NNW 10.4 mph - N/A   Clear
12:55 PM 71.6 °F 44.6 °F 38% 30.07 in 9.0 mi NW 11.5 mph - N/A   Clear
1:15 PM 71.6 °F 46.4 °F 41% 30.06 in 9.0 mi NW 10.4 mph - N/A   Clear
1:35 PM 71.6 °F 46.4 °F 41% 30.06 in 10.0 mi NNW 6.9 mph - N/A   Clear
1:55 PM 71.6 °F 44.6 °F 38% 30.05 in 9.0 mi NNW 6.9 mph - N/A   Clear
2:15 PM 71.6 °F 46.4 °F 41% 30.05 in 9.0 mi NNW 9.2 mph - N/A   Clear
2:35 PM 73.4 °F 46.4 °F 38% 30.04 in 8.0 mi WNW 8.1 mph - N/A   Clear
2:55 PM 73.4 °F 46.4 °F 38% 30.04 in 8.0 mi WNW 6.9 mph - N/A   Clear
3:15 PM 73.4 °F 46.4 °F 38% 30.03 in 8.0 mi NW 6.9 mph - N/A   Scattered Clouds
3:35 PM 73.4 °F 46.4 °F 38% 30.03 in 10.0 mi NW 10.4 mph - N/A   Scattered Clouds
3:55 PM 71.6 °F 46.4 °F 41% 30.01 in 8.0 mi NW 12.7 mph - N/A   Partly Cloudy
4:15 PM 71.6 °F 46.4 °F 41% 30.01 in 8.0 mi WNW 10.4 mph - N/A   Clear
4:35 PM 71.6 °F 46.4 °F 41% 30.01 in 9.0 mi NNW 9.2 mph - N/A   Scattered Clouds
5:15 PM 71.6 °F 46.4 °F 41% 30.00 in 9.0 mi WNW 8.1 mph - N/A   Partly Cloudy
5:35 PM 71.6 °F 46.4 °F 41% 29.99 in 9.0 mi NW 11.5 mph 16.1 mph N/A   Clear
5:55 PM 71.6 °F 46.4 °F 41% 29.99 in 10.0 mi NW 8.1 mph - N/A   Clear
6:15 PM 71.6 °F 46.4 °F 41% 29.99 in 9.0 mi WNW 5.8 mph - N/A   Clear
6:35 PM 71.6 °F 48.2 °F 43% 29.98 in 10.0 mi NW 5.8 mph - N/A   Clear
6:55 PM 69.8 °F 46.4 °F 43% 29.98 in 9.0 mi NW 3.5 mph - N/A   Clear
7:15 PM 69.8 °F 48.2 °F 46% 29.97 in 9.0 mi WNW 3.5 mph - N/A   Clear
7:35 PM 69.8 °F 50.0 °F 49% 29.97 in 9.0 mi Calm Calm - N/A   Clear
7:55 PM 66.2 °F 50.0 °F 56% 29.98 in 9.0 mi Calm Calm - N/A   Clear
8:15 PM 64.4 °F 48.2 °F 56% 29.98 in 10.0 mi Calm Calm - N/A   Clear
8:55 PM 57.2 °F 51.8 °F 82% 29.99 in 10.0 mi Calm Calm - N/A   Clear
9:15 PM 57.2 °F 51.8 °F 82% 30.00 in 10.0 mi Calm Calm - N/A   Scattered Clouds
9:35 PM 57.2 °F 51.8 °F 82% 30.00 in 10.0 mi Calm Calm - N/A   Partly Cloudy
9:55 PM 57.2 °F 53.6 °F 88% 30.01 in 10.0 mi Calm Calm - N/A   Partly Cloudy
10:15 PM 57.2 °F 50.0 °F 77% 30.02 in 9.0 mi Calm Calm - N/A   Clear
10:35 PM 55.4 °F 50.0 °F 82% 30.02 in 10.0 mi Calm Calm - N/A   Partly Cloudy
10:55 PM 53.6 °F 50.0 °F 88% 30.02 in 10.0 mi Calm Calm - N/A   Partly Cloudy
11:15 PM 55.4 °F 48.2 °F 77% 30.03 in 10.0 mi NW 4.6 mph - N/A   Clear
11:55 PM 53.6 °F 48.2 °F 82% 30.03 in 10.0 mi North 4.6 mph - N/A   Clear